Weather History for Gage, OK

Change the Weather History Date:

Friday, January 11, 2013

  Actual Average Record
Temperature  
Mean Temperature 52 °F -  
Max Temperature 63 °F 44 °F 73 °F (1986)
Min Temperature 39 °F 18 °F -9 °F (1962)
Degree Days  
Heating Degree Days 12    
Growing Degree Days 2 (Base 50)    
Moisture  
Dew Point 35 °F    
Average Humidity 64    
Maximum Humidity 93    
Minimum Humidity 37    
Precipitation  
Precipitation 0.00 in - - ()
Sea Level Pressure  
Sea Level Pressure 29.66 in    
Wind  
Wind Speed 19 mph (SSW)    
Max Wind Speed 28 mph    
Max Gust Speed 37 mph    
Visibility 10 miles    
Events      
Averages and records for this station are not official NWS values.
T = Trace of Precipitation, MM = Missing Value Source: NWS Daily Summary

Daily Weather History Graph

Daily Weather History Graph

Search for Another Location

Airport:

Trip Planner

Search our weather history database for the weather conditions in past years. The results will help you decide how hot, cold, wet, or windy it might be!

Date:

Astronomy

Jan. 11, 2013 Rise Set
Actual Time 7:50 AM CST 5:44 PM CST
Civil Twilight 7:22 AM CST 6:12 PM CST
Nautical Twilight 6:50 AM CST 6:44 PM CST
Astronomical Twilight 6:19 AM CST 7:15 PM CST
Moon 7:26 AM CST (1/11) 6:02 PM CST (1/11)
Length of Visible Light 10h 50m
Length of Day
9h 53m
Waning Crescent, 0% of the Moon is Illuminated
Jan 11
Waning Crescent
Jan 11
New
Jan 18
First Quarter
Jan 26
Full
Feb 3
Last Quarter

Hourly Weather History & Observations

Time (CST) Temp. Windchill Dew Point Humidity Pressure Visibility Wind Dir Wind Speed Gust Speed Precip Events Conditions
12:53 AM 43.0 °F 33.5 °F 41.0 °F 93% 29.69 in 10.0 mi South 24.2 mph 29.9 mph N/A   Clear
1:53 AM 43.0 °F 35.1 °F 41.0 °F 93% 29.68 in 10.0 mi South 17.3 mph 24.2 mph N/A   Clear
2:53 AM 43.0 °F 34.8 °F 39.9 °F 89% 29.68 in 10.0 mi South 18.4 mph - N/A   Clear
3:53 AM 43.0 °F 34.8 °F 39.0 °F 86% 29.65 in 10.0 mi South 18.4 mph - N/A   Clear
4:53 AM 42.1 °F 33.3 °F 39.0 °F 89% 29.60 in 10.0 mi South 19.6 mph - N/A   Clear
5:53 AM 42.1 °F 35.2 °F 37.9 °F 85% 29.62 in 10.0 mi SSW 12.7 mph - N/A   Clear
6:53 AM 43.0 °F 35.4 °F 37.0 °F 80% 29.64 in 10.0 mi South 16.1 mph - N/A   Clear
7:53 AM 42.1 °F 35.2 °F 37.0 °F 82% 29.65 in 10.0 mi South 12.7 mph 17.3 mph N/A   Clear
8:53 AM 43.0 °F 33.3 °F 37.0 °F 80% 29.62 in 10.0 mi South 25.3 mph 31.1 mph N/A   Clear
9:53 AM 45.0 °F 35.8 °F 37.9 °F 76% 29.61 in 10.0 mi South 26.5 mph 34.5 mph N/A   Clear
10:53 AM 50.0 °F - 39.9 °F 68% 29.61 in 10.0 mi South 25.3 mph 36.8 mph N/A   Clear
11:53 AM 54.0 °F - 42.1 °F 64% 29.58 in 10.0 mi SSW 27.6 mph 35.7 mph N/A   Clear
12:53 PM 54.0 °F - 42.1 °F 64% 29.56 in 10.0 mi SSW 21.9 mph 28.8 mph N/A   Clear
1:53 PM 55.4 °F - 41.0 °F 58% 29.55 in 10.0 mi SSW 19.6 mph 25.3 mph N/A   Clear
2:53 PM 57.9 °F - 39.9 °F 51% 29.55 in 10.0 mi SSW 21.9 mph 29.9 mph N/A   Clear
3:53 PM 63.0 °F - 39.0 °F 41% 29.55 in 10.0 mi SSW 21.9 mph - N/A   Clear
4:53 PM 60.1 °F - 35.1 °F 39% 29.59 in 10.0 mi West 17.3 mph 25.3 mph N/A   Clear
5:53 PM 55.9 °F - 32.0 °F 40% 29.64 in 10.0 mi West 20.7 mph 27.6 mph N/A   Clear
6:53 PM 53.1 °F - 27.0 °F 37% 29.69 in 10.0 mi West 18.4 mph - N/A   Clear
7:53 PM 48.9 °F - 28.0 °F 44% 29.74 in 10.0 mi West 11.5 mph - N/A   Clear
8:53 PM 46.9 °F - 24.1 °F 41% 29.78 in 10.0 mi WSW 8.1 mph - N/A   Clear
9:53 PM 46.0 °F 40.2 °F 21.0 °F 37% 29.81 in 10.0 mi West 12.7 mph - N/A   Clear
10:53 PM 43.0 °F 38.2 °F 21.0 °F 42% 29.84 in 10.0 mi WNW 8.1 mph - N/A   Clear
11:53 PM 39.9 °F 33.9 °F 19.9 °F 45% 29.86 in 10.0 mi NNW 9.2 mph - N/A   Clear